Simultaneous Nadir Overpasses (SNOs) Predictions

Prediction of SNOs between AQUA and GOES-15 Satellite Orbit:

Table of predicted SNOs for the next 14.0 days since TLE Epoch: 1/3/2020
Index Date Time (AQUA) AQUA Lat,Lon GOES-15 Lat,Lon Distance(km) Time Diff (sec)
1 01/04/2020 10:00:54 -0.45,-126.43 -0.05,-128.35 219.11 80
2 01/04/2020 22:22:19 -0.63,-131.62 0.06,-128.33 373.70 80
3 01/06/2020 22:10:07 -0.03,-128.66 0.05,-128.36 34.50 80
4 01/08/2020 21:57:56 0.63,-125.70 0.04,-128.37 304.06 80
5 01/09/2020 10:19:11 0.47,-130.86 -0.05,-128.40 278.94 80
6 01/11/2020 10:06:59 -0.13,-127.89 -0.04,-128.41 58.65 80
7 01/13/2020 09:54:48 -0.80,-124.94 -0.04,-128.42 395.62 80
8 01/13/2020 22:16:12 -0.34,-130.13 0.04,-128.39 197.60 80
9 01/15/2020 22:04:01 0.33,-127.18 0.04,-128.39 139.02 80
10 01/16/2020 10:25:16 0.76,-132.33 -0.05,-128.41 444.76 80




NCC Satellite Simultaneous Nadir Overpasses (SNOs) Prediction Service
